Weather History for KGVL - May, 2012

Change the Weather History Date:

Friday, May 25, 2012

  Actual Average Record
Temperature  
Mean Temperature 77 °F 71 °F  
Max Temperature 88 °F 80 °F 94 °F (1953)
Min Temperature 66 °F 61 °F 40 °F (1942)
Cooling Degree Days 12 6  
Month to date cooling degree days 94  
Year to date cooling degree days 133  
Growing Degree Days 27 (Base 50)    
Moisture  
Dew Point 63 °F    
Average Humidity 62    
Maximum Humidity 84    
Minimum Humidity 37    
Precipitation  
Precipitation 0.00 in 0.14 in 1.15 in (1955)
Month to date precipitation 3.19  
Year to date precipitation 22.07  
Sea Level Pressure  
Sea Level Pressure 30.08 in    
Wind  
Wind Speed 4 mph (East)    
Max Wind Speed 7 mph    
Max Gust Speed -    
Visibility 10 miles    
Events      
T = Trace of Precipitation, MM = Missing Value Source: NWS Daily Summary

Daily Weather History Graph

Daily Weather History Graph

Search for Another Location

Airport or City:

Trip Planner

Search our weather history database for the weather conditions in past years. The results will help you decide how hot, cold, wet, or windy it might be!

Date:

Astronomy

May. 25, 2012 Rise Set
Actual Time 6:26 AM EDT 8:38 PM EDT
Civil Twilight 5:58 AM EDT 9:06 PM EDT
Nautical Twilight 5:23 AM EDT 9:41 PM EDT
Astronomical Twilight 4:46 AM EDT 10:19 PM EDT
Moon 10:22 AM EDT (5/25) No Moon Set
Length of Visible Light 15h 08m
Length of Day
14h 11m
Waxing Crescent, 19% of the Moon is Illuminated
May 25
Waxing Crescent
May 28
First Quarter
Jun 4
Full
Jun 11
Last Quarter
Jun 19
New

Hourly Weather History & Observations

Time (EDT) Temp. Heat Index Dew Point Humidity Pressure Visibility Wind Dir Wind Speed Gust Speed Precip Events Conditions
12:53 AM 73.9 °F - 62.1 °F 66% 30.01 in 10.0 mi ESE 3.5 mph - N/A   Scattered Clouds
1:53 AM 72.0 °F - 62.1 °F 71% 30.01 in 10.0 mi East 4.6 mph - N/A   Clear
2:53 AM 71.1 °F - 62.1 °F 73% 30.01 in 10.0 mi ESE 4.6 mph - N/A   Clear
3:53 AM 70.0 °F - 62.1 °F 76% 30.02 in 10.0 mi East 3.5 mph - N/A   Clear
4:53 AM 68.0 °F - 62.1 °F 81% 30.04 in 10.0 mi ENE 3.5 mph - N/A   Clear
5:53 AM 66.9 °F - 62.1 °F 84% 30.06 in 10.0 mi NNE 3.5 mph - N/A   Clear
6:53 AM 66.9 °F - 62.1 °F 84% 30.09 in 8.0 mi NE 4.6 mph - N/A   Clear
7:53 AM 70.0 °F - 62.1 °F 76% 30.10 in 10.0 mi ENE 4.6 mph - N/A   Clear
8:53 AM 72.0 °F - 63.0 °F 73% 30.11 in 10.0 mi ESE 6.9 mph - N/A   Clear
10:53 AM 78.1 °F - 64.9 °F 64% 30.12 in 10.0 mi Calm Calm - N/A   Clear
11:53 AM 81.0 °F 83.0 °F 66.0 °F 60% 30.13 in 10.0 mi East 4.6 mph - N/A   Clear
12:53 PM 82.9 °F 85.0 °F 66.0 °F 56% 30.12 in 10.0 mi Variable 4.6 mph - N/A   Clear
1:53 PM 84.0 °F 85.8 °F 64.9 °F 53% 30.11 in 10.0 mi East 5.8 mph - N/A   Partly Cloudy
2:53 PM 86.0 °F 86.8 °F 63.0 °F 46% 30.10 in 10.0 mi NNE 3.5 mph - N/A   Partly Cloudy
3:53 PM 84.9 °F 85.4 °F 62.1 °F 46% 30.09 in 10.0 mi SW 3.5 mph - N/A   Mostly Cloudy
4:53 PM 87.1 °F 87.0 °F 61.0 °F 41% 30.07 in 10.0 mi Variable 4.6 mph - N/A   Mostly Cloudy
5:53 PM 88.0 °F 87.1 °F 59.0 °F 37% 30.07 in 10.0 mi Variable 5.8 mph - N/A   Mostly Cloudy
6:53 PM 87.1 °F 86.5 °F 59.0 °F 39% 30.08 in 10.0 mi Calm Calm - N/A   Clear
7:53 PM 84.0 °F 84.4 °F 61.0 °F 46% 30.08 in 10.0 mi Calm Calm - N/A   Clear
8:53 PM 80.1 °F 81.1 °F 61.0 °F 52% 30.09 in 10.0 mi Calm Calm - N/A   Clear
9:53 PM 79.0 °F - 62.1 °F 56% 30.09 in 10.0 mi Calm Calm - N/A   Clear
10:53 PM 75.9 °F - 64.0 °F 67% 30.10 in 7.0 mi Calm Calm - N/A   Clear
11:53 PM 75.9 °F - 64.9 °F 69% 30.11 in 9.0 mi Calm Calm - N/A   Clear